Weather History for Phoenix-Mesa Gateway Airport, AZ

Change the Weather History Date:

Wednesday, January 1, 2014

  Actual Average Record
Temperature  
Mean Temperature 54 °F -  
Max Temperature 66 °F 63 °F 84 °F (2012)
Min Temperature 41 °F 39 °F 30 °F (2011)
Degree Days  
Heating Degree Days 12    
Growing Degree Days 4 (Base 50)    
Moisture  
Dew Point 33 °F    
Average Humidity 60    
Maximum Humidity 70    
Minimum Humidity 26    
Precipitation  
Precipitation 0.00 in - - ()
Sea Level Pressure  
Sea Level Pressure 30.13 in    
Wind  
Wind Speed 6 mph (ESE)    
Max Wind Speed 10 mph    
Max Gust Speed -    
Visibility 12 miles    
Events      
Averages and records for this station are not official NWS values.
T = Trace of Precipitation, MM = Missing Value Source: NWS Daily Summary

Daily Weather History Graph

Daily Weather History Graph

Search for Another Location

Airport:

Trip Planner

Search our weather history database for the weather conditions in past years. The results will help you decide how hot, cold, wet, or windy it might be!

Date:

Astronomy

Jan. 01, 2014 Rise Set
Actual Time 7:30 AM MST 5:30 PM MST
Civil Twilight 7:03 AM MST 5:57 PM MST
Nautical Twilight 6:32 AM MST 6:28 PM MST
Astronomical Twilight 6:01 AM MST 6:58 PM MST
Moon 7:27 AM MST (1/1) 6:15 PM MST (1/1)
Length of Visible Light 10h 54m
Length of Day
9h 59m
Waxing Crescent, 0% of the Moon is Illuminated
Jan 1
Waxing Crescent
Jan 7
First Quarter
Jan 15
Full
Jan 23
Last Quarter
Jan 30
New

Hourly Weather History & Observations

Time (MST) Temp. Windchill Dew Point Humidity Pressure Visibility Wind Dir Wind Speed Gust Speed Precip Events Conditions
12:15 AM 42.8 °F 38.6 °F 33.8 °F 70% 30.12 in 10.0 mi East 6.9 mph - N/A   Clear
12:35 AM 42.8 °F 39.3 °F 32.0 °F 66% 30.12 in 10.0 mi East 5.8 mph - N/A   Clear
12:55 AM 42.8 °F 38.6 °F 32.0 °F 66% 30.11 in 10.0 mi East 6.9 mph - N/A   Clear
1:15 AM 42.8 °F 38.6 °F 33.8 °F 70% 30.11 in 10.0 mi East 6.9 mph - N/A   Clear
1:35 AM 41.0 °F 36.4 °F 32.0 °F 70% 30.11 in 10.0 mi SE 6.9 mph - N/A   Clear
1:55 AM 42.8 °F 38.0 °F 32.0 °F 66% 30.11 in 10.0 mi SE 8.1 mph - N/A   Clear
2:15 AM 42.8 °F 38.0 °F 33.8 °F 70% 30.11 in 10.0 mi ESE 8.1 mph - N/A   Clear
2:35 AM 42.8 °F 38.0 °F 32.0 °F 66% 30.11 in 10.0 mi ESE 8.1 mph - N/A   Clear
2:55 AM 41.0 °F 37.1 °F 32.0 °F 70% 30.12 in 10.0 mi East 5.8 mph - N/A   Clear
3:15 AM 42.8 °F 37.5 °F 32.0 °F 66% 30.12 in 10.0 mi ESE 9.2 mph - N/A   Clear
3:35 AM 42.8 °F 37.5 °F 32.0 °F 66% 30.12 in 10.0 mi East 9.2 mph - N/A   Clear
3:55 AM 41.0 °F 35.2 °F 32.0 °F 70% 30.12 in 10.0 mi East 9.2 mph - N/A   Clear
4:15 AM 42.8 °F 37.5 °F 32.0 °F 66% 30.12 in 10.0 mi East 9.2 mph - N/A   Clear
4:35 AM 41.0 °F 35.2 °F 32.0 °F 70% 30.12 in 10.0 mi East 9.2 mph - N/A   Clear
4:47 AM 41.0 °F 38.0 °F 30.2 °F 65% 30.12 in 20.0 mi ENE 4.6 mph - N/A   Clear
4:55 AM 41.0 °F 35.8 °F 32.0 °F 70% 30.12 in 10.0 mi East 8.1 mph - N/A   Clear
5:15 AM 41.0 °F 35.8 °F 32.0 °F 70% 30.12 in 10.0 mi East 8.1 mph - N/A   Clear
5:47 AM 41.0 °F 39.0 °F 30.2 °F 65% 30.12 in 20.0 mi ESE 3.5 mph - N/A   Clear
6:47 AM 41.0 °F 38.0 °F 30.2 °F 65% 30.14 in 20.0 mi ESE 4.6 mph - N/A   Clear
7:48 AM 41.0 °F 34.7 °F 30.2 °F 65% 30.15 in 35.0 mi SE 10.4 mph - N/A   Clear
8:54 AM 44.6 °F 42.2 °F 32.0 °F 61% 30.17 in 35.0 mi ESE 4.6 mph - N/A   Clear
9:47 AM 48.2 °F - 32.0 °F 54% 30.19 in 35.0 mi ESE 3.5 mph - N/A   Clear
10:47 AM 55.4 °F - 32.0 °F 41% 30.18 in 35.0 mi SSE 3.5 mph - N/A   Clear
11:47 AM 57.2 °F - 30.2 °F 36% 30.16 in 35.0 mi SSW 4.6 mph - N/A   Clear
12:52 PM 60.8 °F - 30.2 °F 31% 30.12 in 35.0 mi NW 4.6 mph - N/A   Clear
1:47 PM 62.6 °F - 30.2 °F 30% 30.10 in 35.0 mi West 5.8 mph - N/A   Clear
2:47 PM 64.4 °F - 30.2 °F 28% 30.09 in 35.0 mi Calm Calm - N/A   Clear
3:47 PM 66.2 °F - 30.2 °F 26% 30.09 in 20.0 mi NNW 4.6 mph - N/A   Clear
4:47 PM 64.4 °F - 30.2 °F 28% 30.09 in 45.0 mi WNW 3.5 mph - N/A   Clear
6:47 PM 57.2 °F - 35.6 °F 44% 30.12 in 20.0 mi Calm Calm - N/A   Clear
7:55 PM 51.8 °F - 33.8 °F 50% 30.14 in 10.0 mi Calm Calm - N/A   Clear
8:15 PM 51.8 °F - 35.6 °F 54% 30.14 in 10.0 mi Calm Calm - N/A   Clear
8:35 PM 46.4 °F - 33.8 °F 62% 30.14 in 10.0 mi Calm Calm - N/A   Clear
8:47 PM 50.0 °F - 37.4 °F 62% 30.13 in 20.0 mi Calm Calm - N/A   Clear
8:55 PM 48.2 °F - 33.8 °F 58% 30.14 in 10.0 mi Calm Calm - N/A   Clear
9:15 PM 50.0 °F - 35.6 °F 58% 30.14 in 10.0 mi Calm Calm - N/A   Clear
9:35 PM 44.6 °F - 33.8 °F 66% 30.14 in 10.0 mi Calm Calm - N/A   Clear
9:47 PM 46.4 °F 44.3 °F 35.6 °F 66% 30.14 in 20.0 mi East 4.6 mph - N/A   Clear
9:55 PM 48.2 °F - 35.6 °F 62% 30.14 in 10.0 mi Calm Calm - N/A   Clear
10:15 PM 44.6 °F 43.1 °F 33.8 °F 66% 30.14 in 10.0 mi SE 3.5 mph - N/A   Clear
10:35 PM 42.8 °F 38.6 °F 33.8 °F 70% 30.14 in 10.0 mi SSE 6.9 mph - N/A   Clear
10:47 PM 42.8 °F 41.1 °F 33.8 °F 70% 30.14 in 20.0 mi ESE 3.5 mph - N/A   Clear
10:55 PM 42.8 °F - 32.0 °F 66% 30.14 in 10.0 mi Calm Calm - N/A   Clear
11:15 PM 42.8 °F 40.1 °F 33.8 °F 70% 30.14 in 10.0 mi East 4.6 mph - N/A   Clear
11:35 PM 42.8 °F 39.3 °F 33.8 °F 70% 30.14 in 10.0 mi ESE 5.8 mph - N/A   Clear
11:47 PM 42.8 °F 40.1 °F 33.8 °F 70% 30.14 in 20.0 mi East 4.6 mph - N/A   Clear
11:55 PM 42.8 °F 41.1 °F 33.8 °F 70% 30.13 in 10.0 mi ESE 3.5 mph - N/A   Clear